Location: ??????
(36.0418°N, 43.6351°E)
Time: 05:20:58
(UTC+00:00)

Cosmos 1484 Rocket - Pass Details

Date: 07 March 2021
Orbit: 506 x 558 km, 97.4° (Epoch: 20 April)

Event Time Altitude Azimuth Distance (km) Brightness Sun altitude
Rises 01:38:45 0° 9° (N) 2,614 6.5 -22.8°
Reaches altitude 10° 01:40:50 10° 7° (N) 1,725 5.5 -22.4°
Enters shadow 01:43:53 55° 344° (NNW) 612 2.9 -21.7°
